Terug naar catalogus

FENGYUN 1C DEB

ActiefLEO
NORAD 31568·DEBRIS·🇨🇳 China

Gelanceerd May 10, 1999 vanaf Taiyuan Satellite Launch Center

Loading…

Volgende Passages (komende 24 uur)

TLE

VersSource: Space-Track

Epoch: Sep 14, 2026, 05:05 UTC

1 31568U 99025BZK 26257.21245871  .00001834  00000-0  10981-2 0  9997
2 31568 102.0445 233.4383 0120195 155.6545 205.0353 14.05491909984478

Volg FENGYUN 1C DEB in realtime met AllMySat

Download on the App Store